Weather History for Fort Dodge, IA

Change the Weather History Date:

Sunday, May 19, 2013

  Actual Average Record
Temperature  
Mean Temperature 71 °F -  
Max Temperature 80 °F 74 °F 91 °F (1998)
Min Temperature 62 °F 49 °F 37 °F (2002)
Cooling Degree Days 6    
Growing Degree Days 21 (Base 50)    
Moisture  
Dew Point 62 °F    
Average Humidity 78    
Maximum Humidity 94    
Minimum Humidity 57    
Precipitation  
Precipitation 0.00 in - - ()
Sea Level Pressure  
Sea Level Pressure 29.68 in    
Wind  
Wind Speed 10 mph (SSE)    
Max Wind Speed 30 mph    
Max Gust Speed 47 mph    
Visibility 10 miles    
Events Thunderstorm    
Averages and records for this station are not official NWS values.
T = Trace of Precipitation, MM = Missing Value Source: NWS Daily Summary

Daily Weather History Graph

Daily Weather History Graph

Search for Another Location

Airport:

Trip Planner

Search our weather history database for the weather conditions in past years. The results will help you decide how hot, cold, wet, or windy it might be!

Date:

Astronomy

May. 19, 2013 Rise Set
Actual Time 5:50 AM CDT 8:36 PM CDT
Civil Twilight 5:17 AM CDT 9:09 PM CDT
Nautical Twilight 4:36 AM CDT 9:50 PM CDT
Astronomical Twilight 3:49 AM CDT 10:38 PM CDT
Moon 2:34 PM CDT (5/19) 2:22 AM CDT (5/19)
Length of Visible Light 15h 51m
Length of Day
14h 45m
Waxing Gibbous, 65% of the Moon is Illuminated
May 19
Waxing Gibbous
May 24
Full
May 31
Last Quarter
Jun 8
New
Jun 16
First Quarter

Hourly Weather History & Observations

Time (CDT) Temp. Heat Index Dew Point Humidity Pressure Visibility Wind Dir Wind Speed Gust Speed Precip Events Conditions
12:15 AM 71.6 °F - 62.6 °F 73% 29.78 in 10.0 mi SSE 10.4 mph - N/A   Clear
12:35 AM 71.6 °F - 62.6 °F 73% 29.79 in 10.0 mi SSE 11.5 mph 18.4 mph N/A   Partly Cloudy
12:55 AM 73.4 °F - 62.6 °F 69% 29.80 in 10.0 mi SSE 10.4 mph - N/A   Mostly Cloudy
1:15 AM 73.4 °F - 62.6 °F 69% 29.80 in 10.0 mi SSE 11.5 mph 17.3 mph N/A   Overcast
1:35 AM 73.4 °F - 62.6 °F 69% 29.79 in 10.0 mi SSE 9.2 mph - N/A   Overcast
1:55 AM 73.4 °F - 62.6 °F 69% 29.79 in 10.0 mi SSE 15.0 mph 18.4 mph N/A   Overcast
2:15 AM 73.4 °F - 62.6 °F 69% 29.77 in 10.0 mi SE 9.2 mph 19.6 mph N/A   Overcast
2:35 AM 71.6 °F - 62.6 °F 73% 29.75 in 10.0 mi ESE 10.4 mph - N/A   Overcast
2:55 AM 69.8 °F - 62.6 °F 78% 29.73 in 10.0 mi ESE 12.7 mph 17.3 mph N/A   Overcast
3:15 AM 68.0 °F - 62.6 °F 83% 29.74 in 10.0 mi SSE 10.4 mph - N/A   Mostly Cloudy
3:35 AM 68.0 °F - 64.4 °F 88% 29.76 in 2.0 mi SW 19.6 mph 32.2 mph N/A Thunderstorm Overcast
3:55 AM 66.2 °F - 60.8 °F 83% 29.73 in 10.0 mi SW 13.8 mph 26.5 mph N/A   Mostly Cloudy
4:15 AM 64.4 °F - 60.8 °F 88% 29.74 in 10.0 mi East 4.6 mph - N/A   Clear
4:35 AM 64.4 °F - 60.8 °F 88% 29.74 in 10.0 mi ENE 4.6 mph - N/A   Clear
4:55 AM 64.4 °F - 60.8 °F 88% 29.69 in 10.0 mi NE 8.1 mph - N/A   Clear
5:15 AM 64.4 °F - 60.8 °F 88% 29.69 in 10.0 mi East 5.8 mph - N/A   Clear
5:35 AM 64.4 °F - 60.8 °F 88% 29.69 in 10.0 mi Calm Calm - N/A   Clear
5:55 AM 62.6 °F - 60.8 °F 94% 29.69 in 10.0 mi ENE 4.6 mph - N/A   Clear
6:15 AM 62.6 °F - 60.8 °F 94% 29.70 in 10.0 mi ESE 6.9 mph - N/A   Clear
6:35 AM 64.4 °F - 62.6 °F 94% 29.71 in 4.0 mi SE 11.5 mph - N/A   Clear
7:15 AM 66.2 °F - 62.6 °F 88% 29.71 in 9.0 mi SSE 12.7 mph 17.3 mph N/A   Clear
7:35 AM 66.2 °F - 62.6 °F 88% 29.71 in 10.0 mi SSE 12.7 mph 18.4 mph N/A   Clear
7:55 AM 68.0 °F - 62.6 °F 83% 29.71 in 10.0 mi SSE 11.5 mph 19.6 mph N/A   Clear
8:15 AM 69.8 °F - 60.8 °F 73% 29.70 in 10.0 mi South 10.4 mph 20.7 mph N/A   Clear
8:35 AM 69.8 °F - 60.8 °F 73% 29.66 in 10.0 mi ESE 10.4 mph 16.1 mph N/A   Clear
8:55 AM 69.8 °F - 62.6 °F 78% 29.69 in 10.0 mi SSE 9.2 mph - N/A   Clear
9:15 AM 69.8 °F - 62.6 °F 78% 29.68 in 10.0 mi SSE 8.1 mph 18.4 mph N/A   Clear
9:55 AM 71.6 °F - 64.4 °F 78% 29.73 in 10.0 mi South 16.1 mph 25.3 mph N/A   Scattered Clouds
10:15 AM 73.4 °F - 64.4 °F 73% 29.73 in 10.0 mi SSE 12.7 mph 25.3 mph N/A   Scattered Clouds
10:35 AM 75.2 °F - 64.4 °F 69% 29.72 in 10.0 mi South 18.4 mph 26.5 mph N/A   Clear
10:55 AM 75.2 °F - 62.6 °F 65% 29.71 in 10.0 mi SSW 17.3 mph 23.0 mph N/A   Partly Cloudy
11:15 AM 75.2 °F - 62.6 °F 65% 29.70 in 10.0 mi South 11.5 mph 21.9 mph N/A   Scattered Clouds
11:35 AM 73.4 °F - 62.6 °F 69% 29.70 in 10.0 mi SSW 10.4 mph - N/A   Mostly Cloudy
11:55 AM 71.6 °F - 62.6 °F 73% 29.70 in 10.0 mi SSW 11.5 mph - N/A   Overcast
12:15 PM 71.6 °F - 62.6 °F 73% 29.70 in 10.0 mi SW 8.1 mph - N/A   Overcast
12:35 PM 71.6 °F - 62.6 °F 73% 29.68 in 10.0 mi West 5.8 mph - N/A   Overcast
12:55 PM 71.6 °F - 62.6 °F 73% 29.68 in 10.0 mi WSW 8.1 mph - N/A   Overcast
1:15 PM 68.0 °F - 62.6 °F 83% 29.68 in 5.0 mi West 5.8 mph - N/A   Overcast
1:35 PM 69.8 °F - 64.4 °F 83% 29.68 in 10.0 mi SW 4.6 mph - N/A   Mostly Cloudy
2:15 PM 71.6 °F - 64.4 °F 78% 29.66 in 10.0 mi SSW 6.9 mph - N/A   Mostly Cloudy
2:35 PM 73.4 °F - 66.2 °F 78% 29.65 in 10.0 mi South 9.2 mph - N/A   Partly Cloudy
3:15 PM 78.8 °F - 66.2 °F 65% 29.64 in 10.0 mi SSW 12.7 mph 19.6 mph N/A   Clear
3:35 PM 78.8 °F - 64.4 °F 61% 29.63 in 10.0 mi SW 16.1 mph 23.0 mph N/A   Scattered Clouds
3:55 PM 80.6 °F 82.3 °F 64.4 °F 58% 29.64 in 10.0 mi SSW 12.7 mph - N/A   Scattered Clouds
4:15 PM 80.6 °F 82.3 °F 64.4 °F 58% 29.64 in 10.0 mi WSW 12.7 mph - N/A   Scattered Clouds
4:35 PM 80.6 °F 82.3 °F 64.4 °F 58% 29.63 in 10.0 mi West 13.8 mph - N/A   Clear
4:55 PM 78.8 °F - 62.6 °F 57% 29.62 in 10.0 mi West 6.9 mph - N/A   Partly Cloudy
5:15 PM 78.8 °F - 62.6 °F 57% 29.61 in 10.0 mi NW 4.6 mph - N/A   Scattered Clouds
5:35 PM 78.8 °F - 62.6 °F 57% 29.59 in 10.0 mi NNW 8.1 mph - N/A   Mostly Cloudy
6:15 PM 71.6 °F - 60.8 °F 69% 29.68 in 4.0 mi West 29.9 mph 47.2 mph N/A Thunderstorm Mostly Cloudy
6:35 PM 62.6 °F - 57.2 °F 82% 29.65 in 10.0 mi West 11.5 mph 18.4 mph N/A Thunderstorm Thunderstorm
6:55 PM 64.4 °F - 60.8 °F 88% 29.64 in 10.0 mi WNW 9.2 mph 18.4 mph N/A   Overcast
7:15 PM 64.4 °F - 59.0 °F 83% 29.61 in 10.0 mi North 8.1 mph - N/A   Mostly Cloudy
7:35 PM 64.4 °F - 57.2 °F 77% 29.63 in 10.0 mi NNE 4.6 mph - N/A   Mostly Cloudy
7:55 PM 64.4 °F - 59.0 °F 83% 29.65 in 10.0 mi ENE 5.8 mph - N/A   Mostly Cloudy
8:15 PM 64.4 °F - 60.8 °F 88% 29.61 in 10.0 mi ENE 11.5 mph - N/A   Overcast
8:35 PM 64.4 °F - 60.8 °F 88% 29.55 in 10.0 mi ENE 12.7 mph 20.7 mph N/A   Scattered Clouds
8:55 PM 64.4 °F - 60.8 °F 88% 29.56 in 10.0 mi North 3.5 mph - N/A   Clear
9:15 PM 64.4 °F - 60.8 °F 88% 29.56 in 10.0 mi East 9.2 mph - N/A   Scattered Clouds
9:35 PM 64.4 °F - 60.8 °F 88% 29.58 in 10.0 mi SSE 10.4 mph - N/A   Overcast
9:55 PM 64.4 °F - 60.8 °F 88% 29.58 in 10.0 mi SE 8.1 mph - N/A   Overcast
10:15 PM 64.4 °F - 60.8 °F 88% 29.54 in 10.0 mi ESE 6.9 mph - N/A   Overcast
10:35 PM 62.6 °F - 60.8 °F 94% 29.54 in 10.0 mi ESE 8.1 mph - N/A   Overcast
10:55 PM 62.6 °F - 59.0 °F 88% 29.60 in 10.0 mi SE 10.4 mph 16.1 mph N/A   Overcast
11:15 PM 62.6 °F - 59.0 °F 88% 29.63 in 10.0 mi South 9.2 mph - N/A   Overcast
11:35 PM 62.6 °F - 59.0 °F 88% 29.63 in 10.0 mi SSE 6.9 mph - N/A   Overcast
11:55 PM 62.6 °F - 59.0 °F 88% 29.61 in 10.0 mi South 6.9 mph - N/A   Overcast